Location: Camps Bay
(33.9517°S, 18.3844°E)
Time: 21:27:08
(UTC+00:00)

ASTRO E2 - Pass Details

Date: 18 January 2020
Orbit: 510 x 517 km, 31.4° (Epoch: 18 February)

Event Time Altitude Azimuth Distance (km) Brightness Sun altitude
Exits shadow 02:33:28 28° 307° (NW) 998 3.5 -14.9°
Maximum altitude 02:35:17 51° 9° (N) 657 3.0 -14.6°
Drops below altitude 10° 02:39:12 10° 85° (E) 1,750 6.1 -13.9°
Sets 02:41:29 0° 90° (E) 2,639 7.2 -13.6°
